Location: Lafig�re
(44.4503°N, 4.0357°E)
Time: 09:55:17
(UTC+00:00)

Tiros 1 - Pass Details

Date: 27 January 2021
Orbit: 630 x 664 km, 48.4° (Epoch: 07 March)

Event Time Altitude Azimuth Distance (km) Brightness Sun altitude
Rises 19:11:04 0° 278° (W) 2,928 11.8 -25.8°
Reaches altitude 10° 19:13:27 10° 284° (WNW) 2,015 10.6 -26.2°
Enters shadow 19:17:16 46° 329° (NNW) 845 7.8 -26.9°
